Weather History for LIVE - March, 2013

Change the Weather History Date:

Saturday, March 2, 2013

  Actual Average Record
Temperature  
Mean Temperature 37 °F -  
Max Temperature 48 °F 36 °F 62 °F (2012)
Min Temperature 26 °F 20 °F -2 °F (2005)
Degree Days  
Heating Degree Days 28    
Moisture  
Dew Point 17 °F    
Average Humidity 54    
Maximum Humidity 69    
Minimum Humidity 22    
Precipitation  
Precipitation 0.00 in - - ()
Sea Level Pressure  
Sea Level Pressure 29.97 in    
Wind  
Wind Speed 5 mph ()    
Max Wind Speed 8 mph    
Max Gust Speed -    
Averages and records for this station are not official NWS values.
T = Trace of Precipitation, MM = Missing Value Source: Averaged Metar Reports

Daily Weather History Graph

Daily Weather History Graph

Search for Another Location

Airport or City:

Trip Planner

Search our weather history database for the weather conditions in past years. The results will help you decide how hot, cold, wet, or windy it might be!

Date:

Astronomy

Mar. 02, 2013 Rise Set
Actual Time 6:55 AM CET 6:05 PM CET
Civil Twilight 6:25 AM CET 6:35 PM CET
Nautical Twilight 5:50 AM CET 7:10 PM CET
Astronomical Twilight 5:15 AM CET 7:46 PM CET
Moon 11:49 PM CET (3/2) 8:50 AM CET (3/2)
Length of Visible Light 12h 10m
Length of Day
11h 09m
Waning Gibbous, 76% of the Moon is Illuminated
Mar 2
Waning Gibbous
Mar 4
Last Quarter
Mar 11
New
Mar 19
First Quarter
Mar 27
Full

Hourly Weather History & Observations

Time (CET) Temp. Windchill Dew Point Humidity Pressure Visibility Wind Dir Wind Speed Gust Speed Precip Events Conditions
12:55 AM 28.4 °F 22.2 °F 15.8 °F 59% 29.95 in - North 5.8 mph - N/A   Clear
1:55 AM 28.4 °F 22.2 °F 17.6 °F 64% 29.95 in - North 5.8 mph - N/A   Clear
2:55 AM 28.4 °F 22.2 °F 17.6 °F 64% 29.95 in - NNW 5.8 mph - N/A   Clear
3:55 AM 28.4 °F 21.2 °F 17.6 °F 64% 29.95 in - NNW 6.9 mph - N/A   Clear
4:55 AM 28.4 °F 22.2 °F 15.8 °F 59% 29.95 in - NNW 5.8 mph - N/A   Clear
5:55 AM 26.6 °F 20.0 °F 17.6 °F 69% 29.95 in - North 5.8 mph - N/A   Clear
6:55 AM 26.6 °F 20.0 °F 17.6 °F 69% 29.95 in - North 5.8 mph - N/A   Clear
7:55 AM 26.6 °F 20.0 °F 17.6 °F 69% 29.98 in - North 5.8 mph - N/A   Clear
8:55 AM 26.6 °F 19.1 °F 17.6 °F 69% 29.98 in - North 6.9 mph - N/A   Clear
9:55 AM 30.2 °F 23.4 °F 19.4 °F 64% 29.98 in - NNW 6.9 mph - N/A   Clear
10:55 AM 35.6 °F 29.9 °F 19.4 °F 52% 29.98 in - NNW 6.9 mph - N/A   Clear
11:55 AM 41.0 °F 35.8 °F 17.6 °F 39% 29.98 in - NNW 8.1 mph - N/A   Clear
1:55 PM 48.2 °F - 12.2 °F 24% 29.95 in - NNW 5.8 mph - N/A   Clear
2:55 PM 48.2 °F - 10.4 °F 22% 29.95 in - North 5.8 mph - N/A   Clear
3:55 PM 48.2 °F - 14.0 °F 25% 29.95 in - NNW 5.8 mph - N/A   Clear
4:55 PM 42.8 °F - 15.8 °F 34% 29.95 in - Variable 1.2 mph - N/A   Clear
5:55 PM 37.4 °F - 19.4 °F 48% 29.95 in - Variable 1.2 mph - N/A   Clear
6:55 PM 35.6 °F 32.8 °F 17.6 °F 48% 29.98 in - North 3.5 mph - N/A   Clear
7:55 PM 32.0 °F 27.5 °F 19.4 °F 60% 29.98 in - North 4.6 mph - N/A   Clear
8:55 PM 30.2 °F 25.4 °F 19.4 °F 64% 29.98 in - North 4.6 mph - N/A   Clear
9:55 PM 30.2 °F 25.4 °F 17.6 °F 60% 30.01 in - North 4.6 mph - N/A   Clear
11:55 PM 30.2 °F 25.4 °F 19.4 °F 64% 30.01 in - North 4.6 mph - N/A   Clear